sat.trackr.live / text

‹ back to catalog

STARLINK-37669

NORAD 69204 · 2026-114Y

PAYLOAD ACTIVE UNKNOWN

§ Identity

Operator
Country
US
Launch date
2026-05-25
Launch site
AFETR
Launch vehicle
Mass (kg)
RCS (m²)

Purposes: comms

External: N2YO · Heavens-Above · Gunter

§ Orbital elements

Epoch: 2026-09-19T02:24:19.230912Z

Period
93.85 min
Inclination
53.1552°
Eccentricity
0.0001387
Mean motion
15.34403247 rev/d
Perigee alt
461.7 km
Apogee alt
463.6 km
Semi-major
6,840.8 km
B*
4.4301e-4
RAAN
120.1010°
Arg perigee
93.9610°
Mean anomaly
266.1551°
Rev number
1,923

§ Raw data

STARLINK-376691 69204U 26114Y   26262.10022258  .00014622  00000+0  44301-3 0  99922 69204  53.1552 120.1010 0001387  93.9610 266.1551 15.34403247 19230

JSON: /api/v1/satellites/69204 · /tle

For live sub-satellite position, see the globe view (requires WebGL).

§ Visibility from observer

Set your observer location to see the next 7 days of passes ≥ 10°. The values pass through the URL so the page stays shareable.

No JS? Fill the form by hand. The geolocation button needs JavaScript.